FW4251 Weather Reports


Display with metric or nautical units.
time (UTC)temp
F
wind
direction
speed
MPH
gust
MPH
rain 1hr
in
rain 24hr
in
rain mn
in
humidity
%
barometer
mb
20260904022529 73 190 0.0 0.0 0.00 0.00 0.00 89 1012.4
20260904022031 74 190 0.0 0.0 0.00 0.00 0.00 90 1012.3
20260904021534 74 190 0.0 0.0 0.00 0.00 0.00 89 1012.4
20260904021028 74 190 0.0 0.0 0.00 0.00 0.00 89 1012.5
20260904020529 74 190 0.0 0.0 0.00 0.00 0.00 89 1012.5
20260904020028 74 190 0.0 1.0 0.00 0.00 0.00 89 1012.6
20260904015532 74 190 0.0 2.0 0.00 0.00 0.00 89 1012.6
20260904015028 74 190 0.0 2.0 0.00 0.00 0.00 89 1012.6
20260904014528 74 190 0.0 0.0 0.00 0.00 0.00 89 1012.4
20260904014031 74 190 0.0 0.0 0.00 0.00 0.00 89 1012.5
20260904013527 75 190 0.0 0.0 0.00 0.00 0.00 89 1012.5
20260904013027 75 190 0.0 0.0 0.00 0.00 0.00 89 1012.5
20260904012527 75 190 0.0 0.0 0.00 0.00 0.00 88 1012.4
20260904012027 75 190 0.0 0.0 0.00 0.00 0.00 88 1012.4
20260904011527 75 190 0.0 0.0 0.00 0.00 0.00 88 1012.4
20260904011026 75 190 0.0 0.0 0.00 0.00 0.00 88 1012.4
20260904010527 75 190 0.0 0.0 0.00 0.00 0.00 88 1012.3
20260904010026 76 190 0.0 1.0 0.00 0.00 0.00 87 1012.4
20260904005525 76 190 0.0 1.0 0.00 0.00 0.00 87 1012.4
20260904005025 76 190 0.0 0.0 0.00 0.00 0.00 87 1012.4
20260904004528 76 190 0.0 0.0 0.00 0.00 0.00 87 1012.4
20260904004028 76 190 0.0 0.0 0.00 0.00 0.00 87 1012.3
20260904003525 76 190 0.0 0.0 0.00 0.00 0.00 87 1012.3
20260904003025 77 190 0.0 0.0 0.00 0.00 0.00 86 1012.4
20260904002525 77 190 0.0 0.0 0.00 0.00 0.00 86 1012.3
20260904002025 77 190 0.0 0.0 0.00 0.00 0.00 85 1012.2
20260904001524 77 190 0.0 0.0 0.00 0.00 0.00 85 1012.2
20260904001024 77 190 0.0 0.0 0.00 0.00 0.00 84 1012.2
20260904000525 78 190 0.0 0.0 0.00 0.00 0.00 84 1012.1
20260904000023 78 190 0.0 0.0 0.00 0.00 0.00 84 1012.0
20260903235522 78 190 0.0 0.0 0.00 0.00 0.00 83 1012.0
20260903235022 78 190 0.0 0.0 0.00 0.00 0.00 83 1012.1
20260903234522 79 190 0.0 0.0 0.00 0.00 0.00 83 1012.3
20260903234022 79 190 0.0 0.0 0.00 0.00 0.00 82 1012.1
20260903233522 79 190 0.0 0.0 0.00 0.00 0.00 82 1011.9
20260903233033 79 190 0.0 0.0 0.00 0.00 0.00 82 1011.7
20260903232523 80 190 0.0 0.0 0.00 0.00 0.00 82 1011.7
20260903232021 80 190 0.0 0.0 0.00 0.00 0.00 82 1011.6
20260903231535 80 190 0.0 0.0 0.00 0.00 0.00 81 1011.6
20260903231021 80 190 0.0 0.0 0.00 0.00 0.00 81 1011.9
20260903230526 80 190 0.0 0.0 0.00 0.00 0.00 81 1011.9
20260903230020 80 190 0.0 1.0 0.00 0.00 0.00 81 1012.0
20260903225520 80 190 0.0 1.0 0.00 0.00 0.00 80 1011.9
20260903225020 80 190 0.0 0.0 0.00 0.00 0.00 80 1012.0
20260903224520 80 190 0.0 0.0 0.00 0.00 0.00 80 1011.8
20260903224020 81 190 0.0 3.0 0.00 0.00 0.00 80 1011.8
20260903223523 81 190 0.0 3.0 0.00 0.00 0.00 79 1011.8
20260903223019 81 190 1.0 4.0 0.00 0.00 0.00 78 1011.8
20260903222519 81 190 0.0 3.0 0.00 0.00 0.00 78 1011.9
20260903222019 82 190 0.0 3.0 0.00 0.00 0.00 78 1011.8
20260903221520 82 190 0.0 5.0 0.00 0.00 0.00 78 1011.8
20260903221022 82 190 2.0 5.0 0.00 0.00 0.00 78 1011.7
20260903220519 83 167 1.0 2.0 0.00 0.00 0.00 77 1011.7
20260903220021 83 167 0.0 3.0 0.00 0.00 0.00 77 1011.8
20260903215518 83 167 0.0 3.0 0.00 0.00 0.00 77 1011.8
20260903215018 84 167 1.0 5.0 0.00 0.00 0.00 76 1011.9
20260903214518 84 167 2.0 4.0 0.00 0.00 0.00 74 1011.9
20260903214016 84 167 2.0 4.0 0.00 0.00 0.00 73 1011.8
20260903213515 85 167 1.0 6.0 0.00 0.00 0.00 72 1011.9
20260903213015 85 167 2.0 6.0 0.00 0.00 0.00 72 1011.9
20260903212516 85 162 3.0 5.0 0.00 0.00 0.00 70 1011.9
20260903212017 86 162 1.0 4.0 0.00 0.00 0.00 70 1011.9
20260903211515 86 162 0.0 3.0 0.00 0.00 0.00 70 1011.8
20260903211015 86 162 1.0 5.0 0.00 0.00 0.00 70 1011.7
20260903210515 86 161 0.0 5.0 0.00 0.00 0.00 69 1011.8
20260903210014 86 162 1.0 5.0 0.00 0.00 0.00 68 1011.8
20260903205513 87 162 0.0 3.0 0.00 0.00 0.00 71 1011.8
20260903205013 86 162 1.0 5.0 0.00 0.00 0.00 70 1011.7
20260903204513 86 190 1.0 3.0 0.00 0.00 0.00 70 1011.6
20260903204018 86 190 0.0 5.0 0.00 0.00 0.00 70 1011.6
20260903203511 86 190 1.0 7.0 0.00 0.00 0.00 69 1011.5
20260903203013 86 183 2.0 7.0 0.00 0.00 0.00 66 1011.7
20260903202511 86 165 3.0 6.0 0.00 0.00 0.00 67 1011.7
20260903202010 86 157 1.0 5.0 0.00 0.00 0.00 70 1011.5
20260903201511 86 211 3.0 5.0 0.00 0.00 0.00 67 1011.8
20260903201009 86 215 2.0 6.0 0.00 0.00 0.00 67 1011.8
20260903200508 86 169 1.0 5.0 0.00 0.00 0.00 68 1011.9
20260903200008 86 169 0.0 5.0 0.00 0.00 0.00 70 1011.9
20260903195506 86 169 2.0 5.0 0.00 0.00 0.00 68 1012.0
20260903195005 86 129 1.0 5.0 0.00 0.00 0.00 71 1011.9
20260903194505 85 202 2.0 5.0 0.00 0.00 0.00 71 1011.9
20260903194003 85 206 1.0 4.0 0.00 0.00 0.00 73 1012.0
20260903193501 84 205 2.0 5.0 0.00 0.00 0.00 72 1011.9
20260903193102 84 281 1.0 6.0 0.00 0.00 0.00 72 1011.9
20260903192559 84 296 0.0 3.0 0.00 0.00 0.00 72 1011.9
20260903192057 83 296 1.0 3.0 0.00 0.00 0.00 72 1012.3
20260903191603 83 296 0.0 3.0 0.00 0.00 0.00 71 1012.3
20260903191058 83 296 0.0 2.0 0.00 0.00 0.00 73 1012.3
20260903190557 83 296 0.0 2.0 0.00 0.00 0.00 73 1012.4
20260903190056 83 296 0.0 2.0 0.00 0.00 0.00 73 1012.4
20260903185600 83 296 0.0 2.0 0.00 0.00 0.00 73 1012.4
20260903185055 83 296 0.0 2.0 0.00 0.00 0.00 73 1012.4
20260903184559 83 296 0.0 3.0 0.00 0.00 0.00 73 1012.4
20260903184057 83 296 0.0 3.0 0.00 0.00 0.00 72 1012.7
20260903183554 83 296 0.0 3.0 0.00 0.00 0.00 72 1012.7
20260903183058 83 296 0.0 4.0 0.00 0.00 0.00 72 1012.8
20260903182556 83 296 1.0 6.0 0.00 0.00 0.00 71 1012.7
20260903182052 83 265 2.0 6.0 0.00 0.00 0.00 72 1012.7
20260903181551 83 315 2.0 6.0 0.00 0.00 0.00 72 1012.8
20260903181050 82 335 1.0 5.0 0.00 0.00 0.00 73 1012.8
20260903180551 82 340 1.0 6.0 0.00 0.00 0.00 75 1012.8
20260903180048 82 345 0.0 6.0 0.00 0.00 0.00 73 1012.8
20260903175546 82 329 3.0 6.0 0.00 0.00 0.00 74 1012.9
20260903175050 82 327 1.0 4.0 0.00 0.00 0.00 75 1012.8
20260903174546 82 163 0.0 2.0 0.00 0.00 0.00 77 1012.8
20260903174045 82 163 0.0 2.0 0.00 0.00 0.00 76 1012.7
20260903173543 81 163 1.0 3.0 0.00 0.00 0.00 77 1012.8
20260903173043 81 163 0.0 4.0 0.00 0.00 0.00 79 1012.8
20260903172545 81 163 0.0 0.0 0.00 0.00 0.00 78 1012.8
20260903172041 81 163 0.0 3.0 0.00 0.00 0.00 78 1012.8
20260903171552 81 163 1.0 3.0 0.00 0.00 0.00 79 1013.0
20260903171041 81 163 0.0 3.0 0.00 0.00 0.00 77 1013.0
20260903170541 81 163 0.0 6.0 0.00 0.00 0.00 78 1012.9
20260903170047 81 163 1.0 6.0 0.00 0.00 0.00 78 1013.0
20260903165539 81 163 1.0 6.0 0.00 0.00 0.00 79 1013.2
20260903165037 81 166 1.0 6.0 0.00 0.00 0.00 80 1013.2
20260903164537 81 214 1.0 6.0 0.00 0.00 0.00 79 1013.3
20260903164036 81 149 2.0 5.0 0.00 0.00 0.00 80 1013.4
20260903163535 80 214 1.0 5.0 0.00 0.00 0.00 81 1013.4
20260903163039 80 176 1.0 6.0 0.00 0.00 0.00 81 1013.6
20260903162533 80 172 3.0 6.0 0.00 0.00 0.00 81 1013.5
20260903162032 80 178 2.0 5.0 0.00 0.00 0.00 82 1013.5
20260903161531 79 227 2.0 5.0 0.00 0.00 0.00 83 1013.6
20260903161031 79 172 1.0 5.0 0.00 0.00 0.00 85 1013.7
20260903160530 79 145 2.0 6.0 0.00 0.00 0.00 87 1013.6
20260903160027 78 180 2.0 8.0 0.00 0.00 0.00 89 1013.6
20260903155529 77 183 1.0 6.0 0.00 0.00 0.00 91 1013.7
20260903155028 77 232 3.0 6.0 0.00 0.00 0.00 93 1013.6
20260903154523 76 186 1.0 8.0 0.00 0.00 0.00 94 1013.6
20260903154022 75 181 3.0 9.0 0.00 0.00 0.00 95 1013.7
20260903153520 75 237 3.0 9.0 0.00 0.00 0.00 96 1013.9
20260903153020 75 238 2.0 6.0 0.00 0.00 0.00 96 1013.9
20260903152518 75 182 2.0 7.0 0.00 0.00 0.00 97 1013.7
20260903152019 74 223 1.0 9.0 0.00 0.00 0.00 96 1013.9
20260903151516 74 219 5.0 9.0 0.00 0.00 0.00 97 1014.0
20260903151015 74 205 3.0 8.0 0.00 0.00 0.00 97 1014.1
20260903150513 73 232 2.0 8.0 0.00 0.00 0.00 97 1014.1
20260903150012 73 234 3.0 9.0 0.00 0.00 0.00 97 1014.2
20260903145515 73 215 3.0 9.0 0.00 0.00 0.00 97 1014.1
20260903145009 72 225 2.0 6.0 0.00 0.00 0.00 97 1014.1
20260903144508 72 207 3.0 10.0 0.00 0.00 0.00 97 1014.1
20260903144007 72 171 4.0 10.0 0.00 0.00 0.00 97 1014.1
20260903143504 71 238 2.0 7.0 0.00 0.00 0.00 97 1014.1
20260903143003 71 202 3.0 6.0 0.00 0.00 0.00 97 1014.0
20260903142502 71 245 3.0 7.0 0.00 0.00 0.00 97 1014.1
20260903142101 71 194 2.0 9.0 0.00 0.00 0.00 97 1014.1
20260903141600 71 252 2.0 9.0 0.00 0.00 0.00 97 1014.1
20260903141059 71 248 3.0 8.0 0.00 0.00 0.00 97 1014.0
20260903140557 70 228 1.0 5.0 0.00 0.00 0.00 97 1014.0
20260903140106 70 158 0.0 5.0 0.00 0.00 0.00 97 1013.7
20260903135555 70 244 2.0 5.0 0.00 0.00 0.00 97 1013.7
20260903135054 69 226 3.0 5.0 0.00 0.00 0.00 97 1013.8
20260903134554 69 232 2.0 5.0 0.00 0.00 0.00 97 1013.8
20260903134052 69 213 2.0 5.0 0.00 0.00 0.00 97 1013.9
20260903133551 69 168 2.0 7.0 0.00 0.00 0.00 97 1014.0
20260903133053 69 212 3.0 7.0 0.00 0.00 0.00 97 1014.0
20260903132551 69 180 2.0 5.0 0.00 0.00 0.00 97 1014.0
20260903132050 69 229 2.0 5.0 0.00 0.00 0.00 97 1014.0
20260903131552 68 205 1.0 6.0 0.00 0.00 0.00 97 1014.0
20260903131048 68 203 2.0 6.0 0.00 0.00 0.00 97 1013.9
20260903130548 68 205 1.0 5.0 0.00 0.00 0.00 97 1013.8
20260903130050 68 198 2.0 7.0 0.00 0.00 0.00 97 1013.8
20260903125548 68 182 1.0 7.0 0.00 0.00 0.00 97 1013.9
20260903125046 68 184 3.0 7.0 0.00 0.00 0.00 97 1014.0
20260903124545 67 152 2.0 6.0 0.00 0.00 0.00 97 1014.0
20260903124045 67 209 4.0 6.0 0.00 0.00 0.00 96 1014.0
20260903123544 67 155 3.0 7.0 0.00 0.00 0.00 96 1014.4
20260903123044 67 180 2.0 5.0 0.00 0.00 0.00 96 1014.5
20260903122545 67 180 1.0 6.0 0.00 0.00 0.00 97 1014.6
20260903122043 67 178 2.0 6.0 0.00 0.00 0.00 97 1014.4
20260903121542 66 191 2.0 6.0 0.00 0.00 0.00 96 1014.4
20260903121041 66 203 2.0 7.0 0.00 0.00 0.00 97 1014.4
20260903120541 66 170 3.0 7.0 0.00 0.00 0.00 96 1014.4
20260903120053 66 177 2.0 7.0 0.00 0.00 0.00 96 1014.4
20260903115539 66 211 2.0 6.0 0.00 0.00 0.00 96 1014.4
20260903115039 66 223 2.0 4.0 0.00 0.00 0.00 96 1014.4
20260903114539 66 89 0.0 2.0 0.00 0.00 0.00 96 1014.3
20260903114038 66 88 0.0 2.0 0.00 0.00 0.00 96 1014.4
20260903113539 66 88 0.0 3.0 0.00 0.00 0.00 96 1014.3
20260903113043 66 88 1.0 3.0 0.00 0.00 0.00 96 1014.4
20260903112537 65 165 1.0 6.0 0.00 0.00 0.00 96 1014.3
20260903112037 65 165 1.0 9.0 0.00 0.00 0.00 96 1014.1
20260903111536 65 195 3.0 8.0 0.00 0.00 0.00 96 1014.3
20260903111035 65 190 3.0 8.0 0.00 0.00 0.00 96 1014.4
20260903110534 65 180 1.0 7.0 0.00 0.00 0.00 96 1014.6
20260903110034 65 116 1.0 7.0 0.00 0.00 0.00 96 1014.4
20260903105534 65 203 0.0 4.0 0.00 0.00 0.00 96 1014.5
20260903105035 65 203 1.0 6.0 0.00 0.00 0.00 96 1014.7
20260903104533 65 207 1.0 5.0 0.00 0.00 0.00 96 1014.7
20260903104035 65 206 2.0 5.0 0.00 0.00 0.00 96 1014.6
20260903103533 65 154 0.0 7.0 0.00 0.00 0.00 96 1014.6
20260903103033 65 205 1.0 6.0 0.00 0.00 0.00 96 1014.6
20260903102533 65 205 2.0 6.0 0.00 0.00 0.00 96 1014.4
20260903102034 65 235 1.0 4.0 0.00 0.00 0.00 96 1014.5
20260903101543 65 236 0.0 5.0 0.00 0.00 0.00 96 1014.5
20260903101033 65 236 2.0 7.0 0.00 0.00 0.00 96 1014.5
20260903100533 65 225 2.0 7.0 0.00 0.00 0.00 96 1014.5
20260903100035 65 192 3.0 7.0 0.00 0.00 0.00 96 1014.4
20260903095531 65 198 4.0 8.0 0.00 0.00 0.00 96 1014.4
20260903095032 65 196 3.0 7.0 0.00 0.00 0.00 96 1014.4
20260903094531 65 203 2.0 5.0 0.00 0.00 0.00 96 1014.5
20260903094030 65 244 1.0 7.0 0.00 0.00 0.00 96 1014.4
20260903093532 65 249 2.0 7.0 0.00 0.00 0.00 96 1014.1
20260903093039 65 226 3.0 7.0 0.00 0.00 0.00 96 1014.1
20260903092531 65 167 4.0 11.0 0.00 0.00 0.00 96 1014.1
20260903092030 65 175 3.0 11.0 0.00 0.00 0.00 96 1014.1
20260903091530 65 168 3.0 9.0 0.00 0.00 0.00 96 1013.9
20260903091029 65 195 5.0 9.0 0.00 0.00 0.00 96 1014.1
20260903090531 65 150 4.0 9.0 0.00 0.00 0.00 96 1014.4
20260903090028 65 202 5.0 7.0 0.00 0.00 0.00 96 1014.3
20260903085526 65 166 4.0 9.0 0.00 0.00 0.00 96 1014.4
20260903085027 65 186 1.0 9.0 0.00 0.00 0.00 96 1014.4
20260903084532 65 208 2.0 7.0 0.00 0.00 0.00 96 1014.4
20260903084028 65 216 3.0 8.0 0.00 0.00 0.00 96 1014.2
20260903083525 65 169 2.0 8.0 0.00 0.00 0.00 96 1014.3
20260903083027 65 228 2.0 9.0 0.00 0.00 0.00 96 1014.4
20260903082525 65 192 3.0 9.0 0.00 0.00 0.00 96 1014.4
20260903082025 65 208 4.0 8.0 0.00 0.00 0.00 96 1014.4
20260903081525 65 156 3.0 8.0 0.00 0.00 0.00 96 1014.6
20260903081024 65 160 3.0 9.0 0.00 0.00 0.00 96 1014.6
20260903080523 65 188 3.0 9.0 0.00 0.00 0.00 96 1014.7
20260903080037 65 177 3.0 9.0 0.00 0.00 0.00 96 1014.9
20260903075523 65 165 2.0 10.0 0.00 0.00 0.00 96 1014.8
20260903075024 65 164 5.0 10.0 0.00 0.00 0.00 96 1014.3
20260903074522 65 193 3.0 13.0 0.00 0.00 0.00 96 1014.4
20260903074022 65 165 3.0 13.0 0.00 0.00 0.00 96 1014.4
20260903073520 65 163 6.0 10.0 0.00 0.00 0.00 96 1014.5
20260903073024 64 157 3.0 11.0 0.00 0.00 0.00 96 1014.5
20260903072520 64 171 4.0 11.0 0.00 0.00 0.00 96 1014.5
20260903072019 64 171 5.0 10.0 0.00 0.00 0.00 96 1014.4
20260903071519 64 186 5.0 9.0 0.00 0.00 0.00 96 1014.5
20260903071023 64 179 2.0 7.0 0.00 0.00 0.00 95 1014.6
20260903070517 64 159 3.0 8.0 0.00 0.00 0.00 95 1014.6
20260903070018 64 153 3.0 8.0 0.00 0.00 0.00 95 1014.6
20260903065515 64 213 3.0 10.0 0.00 0.00 0.00 95 1014.8
20260903065014 64 169 4.0 10.0 0.00 0.00 0.00 95 1015.0
20260903064514 64 182 4.0 7.0 0.00 0.00 0.00 95 1015.1
20260903064013 64 200 3.0 7.0 0.00 0.00 0.00 95 1015.3
20260903063514 64 142 3.0 6.0 0.00 0.00 0.00 95 1015.0
20260903063013 64 168 2.0 7.0 0.00 0.00 0.00 95 1014.9
20260903062513 64 173 3.0 7.0 0.00 0.00 0.00 95 1014.9
20260903062012 64 193 3.0 7.0 0.00 0.00 0.00 95 1015.1
20260903061514 64 163 4.0 6.0 0.00 0.00 0.00 95 1015.1
20260903061014 64 170 2.0 5.0 0.00 0.00 0.00 95 1015.1
20260903060510 64 190 2.0 4.0 0.00 0.00 0.00 95 1015.3
20260903060008 64 201 1.0 3.0 0.00 0.00 0.00 95 1015.6
20260903055508 64 204 0.0 3.0 0.00 0.00 0.00 95 1016.0
20260903055007 64 204 0.0 4.0 0.00 0.00 0.00 95 1016.4
20260903054511 64 197 0.0 5.0 0.00 0.00 0.00 95 1016.1
20260903054006 64 197 2.0 7.0 0.00 0.00 0.00 95 1016.1
20260903053507 64 205 4.0 7.0 0.00 0.00 0.00 95 1016.5
20260903053006 64 226 2.0 9.0 0.00 0.00 0.00 95 1016.6
20260903052505 64 190 4.0 9.0 0.00 0.00 0.00 95 1016.2
20260903052007 64 192 3.0 7.0 0.00 0.00 0.00 95 1016.5
20260903051506 64 190 2.0 5.0 0.00 0.00 0.00 95 1017.2
20260903051004 64 256 2.0 6.0 0.00 0.00 0.00 95 1017.3
20260903050503 64 228 2.0 6.0 0.00 0.00 0.00 95 1017.0
20260903050010 64 184 1.0 6.0 0.00 0.00 0.00 95 1016.9
20260903045503 64 186 1.0 6.0 0.00 0.00 0.00 95 1016.8
20260903045002 64 163 2.0 6.0 0.00 0.00 0.00 95 1016.5
20260903044503 64 184 2.0 4.0 0.00 0.00 0.00 95 1016.9
20260903044100 64 198 1.0 4.0 0.00 0.00 0.00 95 1017.3
20260903043559 64 186 1.0 3.0 0.00 0.00 0.00 95 1017.5
20260903043059 64 191 1.0 6.0 0.00 0.00 0.00 95 1017.8
20260903042558 64 192 2.0 6.0 0.00 0.00 0.00 95 1017.9
20260903042057 64 161 2.0 5.0 0.00 0.00 0.00 95 1017.8
20260903041610 64 161 1.0 5.0 0.00 0.00 0.00 95 1017.7
20260903041055 64 161 1.0 7.0 0.00 0.00 0.00 94 1017.9
20260903040554 64 151 3.0 6.0 0.00 0.00 0.00 94 1018.2
20260903040103 65 161 3.0 6.0 0.00 0.00 0.00 94 1018.4
20260903035552 65 288 1.0 4.0 0.00 0.00 0.00 94 1019.1
20260903035052 64 279 2.0 4.0 0.00 0.00 0.00 94 1019.2
20260903034552 65 229 1.0 3.0 0.00 0.00 0.00 94 1018.7
20260903034053 65 223 0.0 3.0 0.00 0.00 0.00 94 1018.3
20260903033551 64 223 0.0 3.0 0.00 0.00 0.00 94 1018.4
20260903033051 65 223 0.0 2.0 0.00 0.00 0.00 94 1018.3
20260903032551 65 223 1.0 3.0 0.00 0.00 0.00 94 1018.2
20260903032053 65 223 1.0 3.0 0.00 0.00 0.00 94 1017.9
20260903031552 65 223 1.0 4.0 0.00 0.00 0.00 94 1017.8
20260903031052 65 223 1.0 4.0 0.00 0.00 0.00 94 1017.9
20260903030550 65 216 1.0 3.0 0.00 0.00 0.00 94 1018.2
20260903030050 65 215 0.0 2.0 0.00 0.00 0.00 94 1018.1
20260903025549 65 215 0.0 3.0 0.00 0.00 0.00 94 1017.9
20260903025052 65 215 1.0 3.0 0.00 0.00 0.00 94 1017.9
20260903024549 65 215 0.0 4.0 0.00 0.00 0.00 94 1018.1
20260903024047 65 215 1.0 5.0 0.00 0.00 0.00 94 1018.1
20260903023547 65 215 2.0 5.0 0.00 0.00 0.00 94 1018.4
20260903023046 65 233 2.0 5.0 0.00 0.00 0.00 94 1018.4